• In Deutschland
  • Länderverzeichnis
  • Für 7 Tage
  • Wassertemperatur
  • Satellitenkarten
  • Wetterkarte
  • Widgets
  • user-avatar
    Anmelden

    Stündliche Wetter La Paz

    Heute, 25 September, Montag

    Zeit Temperatur Niederschläge Wind Luftdruck Luftfeuchtigkeit
    00:00 +6°C° 0 mm 1 m/S 474 mmHg 84%
    01:00 +5°C° 0 mm 1 m/S 474 mmHg 85%
    02:00 +5°C° 0 mm 1 m/S 474 mmHg 84%
    03:00 +4°C° 0 mm 1 m/S 473 mmHg 83%
    04:00 +4°C° 0 mm 1 m/S 473 mmHg 82%
    05:00 +5°C° 0 mm 1 m/S 474 mmHg 74%
    06:00 +6°C° 0 mm 1 m/S 475 mmHg 65%
    07:00 +6°C° 0 mm 0 m/S 476 mmHg 57%
    08:00 +9°C° 0 mm 1 m/S 477 mmHg 49%
    09:00 +9°C° 0 mm 2 m/S 478 mmHg 41%
    10:00 +12°C° 0 mm 2 m/S 479 mmHg 34%
    11:00 +12°C° 0,3 mm 2 m/S 478 mmHg 37%
    12:00 +11°C° 0,3 mm 3 m/S 478 mmHg 39%
    13:00 +12°C° 0,3 mm 3 m/S 477 mmHg 42%
    14:00 +11°C° 0,5 mm 3 m/S 477 mmHg 47%
    15:00 +11°C° 0,5 mm 3 m/S 476 mmHg 51%
    16:00 +10°C° 0,5 mm 4 m/S 476 mmHg 55%
    17:00 +8°C° 0,2 mm 4 m/S 475 mmHg 63%
    18:00 +7°C° 0,2 mm 4 m/S 475 mmHg 70%
    19:00 +5°C° 0,2 mm 4 m/S 475 mmHg 77%
    20:00 +5°C° 0 mm 3 m/S 475 mmHg 79%
    21:00 +5°C° 0 mm 3 m/S 475 mmHg 80%
    22:00 +4°C° 0 mm 3 m/S 475 mmHg 82%
    23:00 +5°C° 0 mm 2 m/S 474 mmHg 83%

    Morgen, 26 September, Dienstag

    Zeit Temperatur Niederschläge Wind Luftdruck Luftfeuchtigkeit
    00:00 +5°C° 0 mm 2 m/S 474 mmHg 84%
    01:00 +4°C° 0 mm 2 m/S 474 mmHg 85%
    02:00 +5°C° 0 mm 1 m/S 474 mmHg 85%
    03:00 +5°C° 0 mm 1 m/S 473 mmHg 86%
    04:00 +5°C° 0 mm 1 m/S 473 mmHg 86%
    05:00 +5°C° 0 mm 1 m/S 474 mmHg 81%
    06:00 +6°C° 0 mm 1 m/S 475 mmHg 77%
    07:00 +7°C° 0 mm 1 m/S 476 mmHg 72%
    08:00 +7°C° 0,1 mm 2 m/S 476 mmHg 67%
    09:00 +8°C° 0,1 mm 2 m/S 477 mmHg 62%
    10:00 +9°C° 0,1 mm 3 m/S 478 mmHg 57%
    11:00 +10°C° 0,4 mm 3 m/S 477 mmHg 57%
    12:00 +10°C° 0,4 mm 3 m/S 477 mmHg 58%
    13:00 +10°C° 0,4 mm 4 m/S 476 mmHg 58%
    14:00 +10°C° 0,4 mm 4 m/S 475 mmHg 61%
    15:00 +8°C° 0,4 mm 4 m/S 475 mmHg 64%
    16:00 +8°C° 0,4 mm 4 m/S 474 mmHg 68%
    17:00 +7°C° 0,8 mm 4 m/S 474 mmHg 73%
    18:00 +7°C° 0,8 mm 3 m/S 474 mmHg 79%
    19:00 +6°C° 0,8 mm 2 m/S 474 mmHg 84%
    20:00 +6°C° 0,2 mm 2 m/S 474 mmHg 84%
    21:00 +5°C° 0,2 mm 2 m/S 474 mmHg 83%
    22:00 +5°C° 0,2 mm 2 m/S 474 mmHg 83%
    23:00 +6°C° 0 mm 1 m/S 474 mmHg 84%

    übermorgen, 27 September, Mittwoch

    Zeit Temperatur Niederschläge Wind Luftdruck Luftfeuchtigkeit
    00:00 +5°C° 0 mm 1 m/S 473 mmHg 85%
    01:00 +5°C° 0 mm 1 m/S 473 mmHg 86%
    02:00 +5°C° 0 mm 1 m/S 473 mmHg 86%
    03:00 +5°C° 0 mm 1 m/S 472 mmHg 85%
    04:00 +3°C° 0 mm 0 m/S 472 mmHg 85%
    05:00 +5°C° 0 mm 1 m/S 473 mmHg 80%
    06:00 +6°C° 0 mm 1 m/S 474 mmHg 75%
    07:00 +7°C° 0 mm 1 m/S 475 mmHg 69%
    08:00 +7°C° 0 mm 2 m/S 475 mmHg 63%
    09:00 +9°C° 0 mm 2 m/S 476 mmHg 57%
    10:00 +10°C° 0 mm 3 m/S 477 mmHg 51%
    11:00 +10°C° 0,6 mm 3 m/S 476 mmHg 52%
    12:00 +10°C° 0,6 mm 3 m/S 476 mmHg 54%
    13:00 +10°C° 0,6 mm 3 m/S 475 mmHg 56%
    14:00 +10°C° 1 mm 4 m/S 475 mmHg 59%
    15:00 +8°C° 1 mm 4 m/S 474 mmHg 63%
    16:00 +8°C° 1 mm 4 m/S 474 mmHg 67%
    17:00 +8°C° 0,3 mm 3 m/S 474 mmHg 72%
    18:00 +7°C° 0,3 mm 3 m/S 474 mmHg 78%
    19:00 +6°C° 0,3 mm 2 m/S 474 mmHg 83%
    20:00 +6°C° 0 mm 2 m/S 474 mmHg 83%
    21:00 +5°C° 0 mm 2 m/S 474 mmHg 82%
    22:00 +6°C° 0 mm 1 m/S 474 mmHg 81%
    23:00 +6°C° 0 mm 1 m/S 473 mmHg 81%

    28 September, Donnerstag

    Zeit Temperatur Niederschläge Wind Luftdruck Luftfeuchtigkeit
    00:00 +5°C° 0 mm 1 m/S 473 mmHg 81%
    01:00 +4°C° 0 mm 0 m/S 472 mmHg 81%
    02:00 +3°C° 0 mm 0 m/S 472 mmHg 80%
    03:00 +3°C° 0 mm 0 m/S 472 mmHg 80%
    04:00 +2°C° 0 mm 0 m/S 471 mmHg 79%
    05:00 +4°C° 0 mm 0 m/S 472 mmHg 72%
    06:00 +5°C° 0 mm 0 m/S 474 mmHg 65%
    07:00 +6°C° 0 mm 0 m/S 475 mmHg 58%
    08:00 +8°C° 0 mm 1 m/S 476 mmHg 53%
    09:00 +9°C° 0 mm 2 m/S 476 mmHg 48%
    10:00 +10°C° 0 mm 3 m/S 477 mmHg 43%
    11:00 +11°C° 0,2 mm 3 m/S 477 mmHg 43%
    12:00 +11°C° 0,2 mm 3 m/S 476 mmHg 43%
    13:00 +11°C° 0,2 mm 3 m/S 476 mmHg 44%
    14:00 +11°C° 0,1 mm 3 m/S 475 mmHg 45%
    15:00 +11°C° 0,1 mm 3 m/S 475 mmHg 46%
    16:00 +10°C° 0,1 mm 3 m/S 474 mmHg 48%
    17:00 +9°C° 0 mm 3 m/S 474 mmHg 54%
    18:00 +8°C° 0 mm 2 m/S 474 mmHg 61%
    19:00 +7°C° 0 mm 2 m/S 474 mmHg 68%
    20:00 +7°C° 0 mm 2 m/S 474 mmHg 66%
    21:00 +7°C° 0 mm 1 m/S 474 mmHg 64%
    22:00 +6°C° 0 mm 1 m/S 474 mmHg 63%
    23:00 +6°C° 0 mm 1 m/S 473 mmHg 57%

    29 September, Freitag

    Zeit Temperatur Niederschläge Wind Luftdruck Luftfeuchtigkeit
    00:00 +5°C° 0 mm 1 m/S 473 mmHg 52%
    01:00 +3°C° 0 mm 2 m/S 472 mmHg 47%
    02:00 +3°C° 0 mm 2 m/S 472 mmHg 41%
    03:00 +2°C° 0 mm 2 m/S 472 mmHg 36%
    04:00 +2°C° 0 mm 2 m/S 471 mmHg 30%
    05:00 +3°C° 0 mm 2 m/S 473 mmHg 27%
    06:00 +5°C° 0 mm 2 m/S 474 mmHg 24%
    07:00 +6°C° 0 mm 2 m/S 476 mmHg 21%
    08:00 +8°C° 0 mm 2 m/S 477 mmHg 20%
    09:00 +9°C° 0 mm 2 m/S 477 mmHg 20%
    10:00 +12°C° 0 mm 2 m/S 478 mmHg 19%
    11:00 +13°C° 0,1 mm 2 m/S 478 mmHg 20%
    12:00 +14°C° 0,1 mm 2 m/S 478 mmHg 21%
    13:00 +14°C° 0,1 mm 2 m/S 477 mmHg 21%
    14:00 +14°C° 0,2 mm 2 m/S 477 mmHg 25%
    15:00 +14°C° 0,2 mm 2 m/S 477 mmHg 29%
    16:00 +13°C° 0,2 mm 3 m/S 476 mmHg 33%
    17:00 +12°C° 0 mm 2 m/S 476 mmHg 43%
    18:00 +9°C° 0 mm 2 m/S 475 mmHg 54%
    19:00 +8°C° 0 mm 2 m/S 475 mmHg 65%
    20:00 +7°C° 0 mm 2 m/S 475 mmHg 66%
    21:00 +7°C° 0 mm 1 m/S 474 mmHg 68%
    22:00 +7°C° 0 mm 1 m/S 474 mmHg 70%
    23:00 +6°C° 0 mm 1 m/S 474 mmHg 63%

    30 September, Samstag

    Zeit Temperatur Niederschläge Wind Luftdruck Luftfeuchtigkeit
    00:00 +5°C° 0 mm 2 m/S 473 mmHg 55%
    01:00 +5°C° 0 mm 2 m/S 473 mmHg 48%
    02:00 +4°C° 0 mm 2 m/S 472 mmHg 46%
    03:00 +3°C° 0 mm 2 m/S 472 mmHg 45%
    04:00 +3°C° 0 mm 2 m/S 472 mmHg 43%
    05:00 +4°C° 0 mm 2 m/S 473 mmHg 39%
    06:00 +6°C° 0 mm 2 m/S 475 mmHg 34%
    07:00 +7°C° 0 mm 2 m/S 476 mmHg 30%
    08:00 +9°C° 0 mm 2 m/S 477 mmHg 26%
    09:00 +11°C° 0 mm 3 m/S 478 mmHg 22%
    10:00 +13°C° 0 mm 3 m/S 479 mmHg 17%
    11:00 +14°C° 0 mm 4 m/S 479 mmHg 18%
    12:00 +14°C° 0 mm 4 m/S 479 mmHg 19%
    13:00 +15°C° 0 mm 4 m/S 479 mmHg 20%
    14:00 +15°C° 0,3 mm 4 m/S 478 mmHg 24%
    15:00 +14°C° 0,3 mm 4 m/S 477 mmHg 28%
    16:00 +14°C° 0,3 mm 3 m/S 477 mmHg 32%
    17:00 +12°C° 0,2 mm 3 m/S 476 mmHg 43%
    18:00 +10°C° 0,2 mm 3 m/S 475 mmHg 55%
    19:00 +8°C° 0,2 mm 2 m/S 475 mmHg 66%
    20:00 +8°C° 0 mm 2 m/S 475 mmHg 67%
    21:00 +8°C° 0 mm 1 m/S 474 mmHg 69%
    22:00 +7°C° 0 mm 1 m/S 474 mmHg 70%
    23:00 +7°C° 0 mm 1 m/S 474 mmHg 63%
    Mehr zeigen